Regional Weather Roundup
Issued by NWS

Home | Current Version | Previous Version | Graphics & Text | Print | Product List | Glossary On
Versions: 1 2 3 4 5 6 7 8 9 10 11 12 13 14 15 16 17 18 19 20 21 22 23 24 25 26 27 28 29 30 31 32 33 34 35 36 37 38 39 40 41 42 43 44 45 46 47 48 49 50
000
ASUS43 KFSD 102000
RWRSD

SOUTH DAKOTA HOURLY REGIONAL WEATHER ROUNDUP
NATIONAL WEATHER SERVICE ABERDEEN SD
300 PM CDT THU JUL 10 2014

...SATELLITE DATA IS USED TO AUGMENT CLOUD COVER ABOVE 12000 FEET...

NOTE: "FAIR" INDICATES FEW OR NO CLOUDS BELOW 12,000 FEET WITH NO
SIGNIFICANT WEATHER AND/OR OBSTRUCTION TO VISIBILITY.

SDZ001>005-009-010-012>017-102100-
...NORTHWEST AND NORTH CENTRAL SOUTH DAKOTA...

CITY           SKY/WX    TMP DP  RH WIND       PRES   REMARKS
BUFFALO          N/A     84  65  52 VRB5      29.78F
FAITH            N/A     76  65  68 SE7       29.85S
MOBRIDGE       CLOUDY    76  66  71 S8        29.82F
$$

SDZ012>016-024>037-041>051-057-063-102100-
...SOUTHWEST AND SOUTH CENTRAL SOUTH DAKOTA...

CITY           SKY/WX    TMP DP  RH WIND       PRES   REMARKS
RAPID CITY     MOSUNNY   78  62  57 NW7       29.88F
ELLSWORTH AFB  NOT AVBL
CUSTER         MOSUNNY   80  59  48 SE6       30.02F
PHILIP         SUNNY     85  65  51 SE7       29.82F
PINE RIDGE     MOSUNNY   87  62  43 W6        29.86F
PIERRE         PTSUNNY   79  67  66 SE12      29.81F
WINNER         NOT AVBL
$$

SDZ004>011-016>023-039-040-102100-
...NORTHEAST SOUTH DAKOTA...

CITY           SKY/WX    TMP DP  RH WIND       PRES   REMARKS
ABERDEEN       LGT RAIN  74  66  76 S8        29.85F
WATERTOWN      CLOUDY    78  62  57 S16       29.92F
BROOKINGS      NOT AVBL
SISSETON         N/A     80  64  58 S17G23    29.87F
$$

SDZ017-020-022-023-036>040-048>070-102100-
...SOUTHEAST SOUTH DAKOTA...

CITY           SKY/WX    TMP DP  RH WIND       PRES   REMARKS
SIOUX FALLS    NOT AVBL
YANKTON        MOSUNNY   82  64  54 S23       29.92F
MITCHELL       LGT RAIN  80  66  62 S20       29.86F
HURON          CLOUDY    80  65  59 S9        29.88S
CHAMBERLAIN    NOT AVBL
$$


USA.gov is the U.S. government's official web portal to all federal, state and local government web resources and services.